[[{"header":{"parameterUnit":"m.s-1","parameterCategory":1,"la1":30.2991,"la2":30.254,"lo1":-89.0895,"lo2":-89.0444,"dy":0.0017,"dx":0.0017,"nx":28,"ny":28,"refTime":"2023-07-26T03:00:00:Z","depth":0,"parameterNumber":2,"parameterNumberName":"U-component_of_WINDS"},"data":[0,0,0,0,0,0,0,0,0,0,0,0,0,0,0,0,0,0,0,0,0,0,0,0,0,0,0,0,0,0,0,0,0,0,0,0,0,0,0,0,0,0,0,0,0,0,0,0,0,0,0,0,0,0,0,0,0,0,1.5373,1.5373,0,1.5376,1.5376,1.5376,1.5359,1.5359,1.5358,1.5358,1.536,1.5361,1.5361,0,0,0,0,0,0,0,0,0,0,0,0,0,1.5354,1.5355,1.5373,1.5373,1.5373,1.5376,1.5376,1.5376,1.5359,1.5359,1.5358,1.5358,1.536,1.5361,1.5361,0,0,0,0,0,0,0,0,0,0,0,0,0,1.536,1.5355,1.5373,1.5365,1.5365,1.5376,1.5376,1.5376,1.5359,1.5359,1.5358,1.5357,1.536,1.5361,1.5361,1.538,0,0,1.5364,1.5364,0,0,0,0,0,0,0,0,1.536,1.5361,1.5367,1.5366,1.5365,1.5366,1.537,1.5377,1.5359,1.5361,1.5358,1.5357,1.5363,1.5363,1.5365,1.538,1.538,1.5364,1.5364,1.5364,1.5365,0,0,0,0,0,0,0,1.536,1.5361,1.5374,1.5367,1.5366,1.5362,1.5362,1.5371,1.5366,1.5361,1.536,1.536,1.5362,1.5365,1.5365,1.538,1.5364,1.5364,1.5365,1.5365,1.5409,1.5409,0,0,0,0,0,0,1.536,1.5361,1.5374,1.5374,1.5361,1.5363,1.5363,1.5367,1.5366,1.5365,1.5361,1.536,1.5364,1.5364,1.5365,1.5386,1.5364,1.5365,1.5366,1.5408,1.5409,1.541,0,0,0,0,0,0,1.536,1.5362,1.5374,1.5367,1.5368,1.5364,1.5368,1.5367,1.5369,1.5366,1.5365,1.5364,1.5363,1.5364,1.5376,1.5385,1.5365,1.5366,1.5407,1.5408,1.5409,1.5427,0,0,0,0,0,0,1.5359,1.5362,1.5369,1.5367,1.5369,1.5385,1.5369,1.5368,1.5371,1.5369,1.5368,1.5368,1.5363,1.5375,1.5377,1.5386,1.5367,1.5406,1.5408,1.5409,1.5426,1.5429,1.5432,0,0,0,0,0,1.5359,1.5374,1.5369,1.5371,1.5378,1.5386,1.5386,1.538,1.5371,1.5378,1.5376,1.5368,1.5384,1.5376,1.5378,1.5388,1.5406,1.5407,1.5409,1.5425,1.5428,1.5431,0,0,0,0,0,0,1.5377,1.5374,1.5368,1.5384,1.5385,1.5383,1.5391,1.5384,1.5388,1.5386,1.5379,1.5379,1.5392,1.5391,1.5382,1.5405,1.5393,1.5396,1.5405,1.5408,1.5411,1.541,1.5367,0,0,0,0,0,1.5383,1.5389,1.5386,1.54,1.5401,1.5396,1.5399,1.5394,1.5396,1.5396,1.5395,1.5396,1.5401,1.5405,1.541,1.5426,1.5425,1.5434,1.5437,1.5439,1.544,1.5448,1.5451,1.5415,1.5415,1.5415,0,0,1.5395,1.5394,1.5399,1.5404,1.5404,1.5411,1.5397,1.5405,1.541,1.5397,1.5408,1.5407,1.5408,1.5422,1.5428,1.5422,1.545,1.5441,1.5443,1.5443,1.545,1.5453,1.5456,1.5416,1.5416,1.5416,0,0,1.542,1.542,1.5431,1.5432,1.5432,1.5429,1.5431,1.543,1.5429,1.5439,1.543,1.5436,1.5446,1.5446,1.5448,1.5472,1.5465,1.5474,1.5489,1.5496,1.5499,1.5501,1.5509,1.5512,1.5476,1.5476,1.5476,0,1.5434,1.5444,1.5438,1.5446,1.5448,1.5437,1.5447,1.5448,1.5451,1.5452,1.5446,1.5457,1.5457,1.547,1.5476,1.5478,1.548,1.5474,1.5499,1.5501,1.5503,1.5511,1.5514,1.5477,1.5477,1.5477,1.5477,0,1.5462,1.5469,1.5477,1.5479,1.5482,1.5492,1.5486,1.549,1.5485,1.5482,1.5493,1.5492,1.5496,1.5499,1.5495,1.5512,1.5508,1.55,1.5488,1.5508,1.5515,1.5517,1.5479,1.5478,1.5478,1.5478,0,0,1.5498,1.5495,1.5499,1.5499,1.5498,1.5504,1.5512,1.5516,1.5519,1.5521,1.5528,1.5536,1.5529,1.5531,1.5526,1.5533,1.555,1.5524,1.5524,1.5528,1.5568,1.5573,1.5576,1.5546,1.5546,1.5547,1.5567,0,1.5521,1.5535,1.5529,1.5544,1.555,1.5539,1.5547,1.5547,1.5545,1.5549,1.5547,1.5552,1.5543,1.5544,1.555,1.5547,1.5558,1.5546,1.5551,1.5551,1.555,1.558,1.5585,1.5605,1.557,1.5571,1.5571,0,1.555,1.5552,1.5568,1.5565,1.5568,1.5574,1.5577,1.5581,1.5582,1.5579,1.5581,1.5575,1.5583,1.5571,1.5582,1.5573,1.5575,1.5574,1.5575,1.5574,1.5562,1.5579,1.5611,1.5614,1.5575,1.5575,1.5574,0,1.5573,1.558,1.559,1.5591,1.5589,1.5594,1.5593,1.5593,1.5595,1.5597,1.5598,1.5602,1.5603,1.5606,1.56,1.5593,1.5611,1.56,1.5609,1.5609,1.5613,1.5612,1.5644,1.5616,1.5616,1.5616,1.5616,0,1.5599,1.5608,1.56,1.5606,1.5616,1.5609,1.5619,1.5618,1.5617,1.5622,1.5614,1.5619,1.5612,1.5616,1.5612,1.5621,1.5622,1.562,1.5618,1.562,1.562,1.5621,1.5619,1.5616,1.5616,1.5616,1.5616,0,1.5626,1.5621,1.5631,1.5628,1.5627,1.5635,1.5632,1.5637,1.5634,1.5641,1.5642,1.5637,1.5642,1.5637,1.5641,1.5638,1.565,1.5647,1.5649,1.5648,1.5657,1.5656,1.569,1.5694,1.5664,1.5664,1.5664,0,1.5642,1.5649,1.5647,1.5649,1.5649,1.5654,1.5656,1.5649,1.5652,1.5652,1.5657,1.5661,1.5663,1.5671,1.5668,1.5671,1.5668,1.5679,1.5668,1.5669,1.5666,1.5666,1.5666,1.5681,1.5682,1.5682,1.5682,0,1.5671,1.5668,1.5672,1.5674,1.5677,1.5678,1.5679,1.5682,1.5675,1.5678,1.5682,1.5684,1.5688,1.5692,1.5694,1.5693,1.5686,1.5686,1.5688,1.5689,1.569,1.5689,1.5655,1.5685,1.5685,1.5684,1.5684,1.5684,1.5693,1.5698,1.5697,1.5701,1.5701,1.5701,1.5706,1.5703,1.5706,1.5709,1.5705,1.571,1.5709,1.5711,1.5711,1.5715,1.571,1.5714,1.5714,1.5715,1.5716,1.569,1.5716,1.5716,1.5716,1.5716,1.5715,0,1.5721,1.5719,1.5723,1.5724,1.5727,1.572,1.572,1.5723,1.5728,1.5728,1.573,1.5735,1.5738,1.5735,1.5738,1.5741,1.5738,1.5742,1.5741,1.5741,1.5721,1.5718,1.5745,1.5745,1.5745,1.5745,1.5745,1.5745,1.5735,1.5743,1.574,1.5748,1.5747,1.5751,1.5752,1.5753,1.5753,1.5758,1.576,1.5758,1.5757,1.5759,1.5762,1.5761,1.5762,1.5767,1.5765,1.5746,1.5743,1.574,1.5737,1.5767,1.5767,1.5785,1.5785,1.5785]},{"header":{"parameterUnit":"m.s-1","parameterCategory":1,"la1":30.2991,"la2":30.254,"lo1":-89.0895,"lo2":-89.0444,"dy":0.0017,"dx":0.0017,"nx":28,"ny":28,"refTime":"2023-07-26T03:00:00:Z","depth":0,"parameterNumber":3,"parameterNumberName":"V-component_of_WINDS"},"data":[0,0,0,0,0,0,0,0,0,0,0,0,0,0,0,0,0,0,0,0,0,0,0,0,0,0,0,0,0,0,0,0,0,0,0,0,0,0,0,0,0,0,0,0,0,0,0,0,0,0,0,0,0,0,0,0,0,0,-0.2578,-0.2579,0,-0.2627,-0.2628,-0.2628,-0.2674,-0.2675,-0.2675,-0.2676,-0.2728,-0.2729,-0.273,0,0,0,0,0,0,0,0,0,0,0,0,0,-0.2526,-0.2527,-0.2578,-0.2579,-0.258,-0.2627,-0.2628,-0.2628,-0.2674,-0.2675,-0.2675,-0.2676,-0.2728,-0.2729,-0.273,0,0,0,0,0,0,0,0,0,0,0,0,0,-0.2559,-0.2527,-0.2578,-0.2608,-0.2611,-0.2627,-0.2628,-0.2629,-0.2674,-0.2675,-0.2676,-0.2676,-0.2728,-0.2729,-0.273,-0.2721,0,0,-0.2734,-0.2735,0,0,0,0,0,0,0,0,-0.2557,-0.2561,-0.2603,-0.2606,-0.261,-0.2645,-0.2629,-0.266,-0.2674,-0.265,-0.2676,-0.2677,-0.27,-0.2704,-0.2711,-0.2724,-0.2726,-0.2734,-0.2735,-0.2736,-0.2736,0,0,0,0,0,0,0,-0.2555,-0.2559,-0.2598,-0.2604,-0.2608,-0.2619,-0.2625,-0.2635,-0.267,-0.2652,-0.2656,-0.2661,-0.2702,-0.271,-0.2713,-0.2727,-0.2734,-0.2735,-0.2736,-0.2737,-0.2734,-0.2733,0,0,0,0,0,0,-0.2548,-0.2557,-0.2596,-0.2599,-0.2585,-0.262,-0.2626,-0.2633,-0.267,-0.2676,-0.266,-0.2663,-0.2707,-0.2711,-0.2715,-0.2707,-0.2736,-0.2737,-0.2738,-0.2735,-0.2734,-0.2733,0,0,0,0,0,0,-0.2546,-0.2551,-0.2594,-0.2579,-0.2585,-0.262,-0.2627,-0.2634,-0.2641,-0.2676,-0.2682,-0.2661,-0.2708,-0.2713,-0.2719,-0.2709,-0.2737,-0.2739,-0.2736,-0.2734,-0.2733,-0.269,0,0,0,0,0,0,-0.2545,-0.255,-0.2547,-0.2579,-0.2586,-0.2597,-0.2627,-0.2634,-0.2643,-0.2647,-0.2679,-0.2685,-0.2709,-0.2717,-0.272,-0.2711,-0.274,-0.2737,-0.2735,-0.2734,-0.2692,-0.2687,-0.2683,0,0,0,0,0,-0.2543,-0.2533,-0.2546,-0.2551,-0.2583,-0.2596,-0.2601,-0.2628,-0.2642,-0.2639,-0.2661,-0.2684,-0.2709,-0.2717,-0.2721,-0.2713,-0.2738,-0.2736,-0.2734,-0.2695,-0.2688,-0.2683,0,0,0,0,0,0,-0.2501,-0.2538,-0.2553,-0.2554,-0.2571,-0.2604,-0.2602,-0.2621,-0.2636,-0.2639,-0.2673,-0.268,-0.2682,-0.2698,-0.2706,-0.2706,-0.2727,-0.2725,-0.2695,-0.269,-0.2685,-0.2681,-0.2741,0,0,0,0,0,-0.2491,-0.2499,-0.2531,-0.2529,-0.2537,-0.2567,-0.2574,-0.2594,-0.2614,-0.2622,-0.2645,-0.2664,-0.2676,-0.2684,-0.2697,-0.2695,-0.2702,-0.2691,-0.2686,-0.2682,-0.2681,-0.268,-0.2675,-0.2726,-0.2726,-0.2726,0,0,-0.2473,-0.2494,-0.2497,-0.2521,-0.2537,-0.2544,-0.2574,-0.258,-0.2586,-0.2624,-0.263,-0.2647,-0.2671,-0.2672,-0.2674,-0.2686,-0.2668,-0.2679,-0.2676,-0.2677,-0.2678,-0.2673,-0.2668,-0.2725,-0.2725,-0.2726,0,0,-0.2442,-0.2459,-0.2458,-0.2473,-0.2497,-0.2517,-0.2516,-0.2546,-0.2558,-0.2565,-0.2593,-0.2601,-0.2621,-0.2637,-0.2647,-0.2621,-0.2642,-0.2624,-0.26,-0.2599,-0.2595,-0.2591,-0.2582,-0.2578,-0.2623,-0.2623,-0.2623,0,-0.2416,-0.2428,-0.2456,-0.246,-0.247,-0.2502,-0.2502,-0.2516,-0.2542,-0.2549,-0.2561,-0.2586,-0.2605,-0.261,-0.2603,-0.2611,-0.2612,-0.2621,-0.2593,-0.259,-0.2587,-0.2578,-0.2575,-0.262,-0.2621,-0.2621,-0.2621,0,-0.2394,-0.2402,-0.2399,-0.2422,-0.2432,-0.2434,-0.2462,-0.2468,-0.2486,-0.2505,-0.2512,-0.2534,-0.2553,-0.2555,-0.2574,-0.2563,-0.2569,-0.2586,-0.2608,-0.2579,-0.2572,-0.2569,-0.2617,-0.2618,-0.2619,-0.2619,0,0,-0.2341,-0.2378,-0.2377,-0.2387,-0.2415,-0.2422,-0.2425,-0.2441,-0.2446,-0.2463,-0.2467,-0.2482,-0.2498,-0.251,-0.253,-0.2529,-0.2506,-0.2547,-0.2548,-0.2539,-0.2496,-0.2483,-0.2478,-0.252,-0.252,-0.2519,-0.2494,0,-0.2315,-0.2322,-0.2347,-0.2347,-0.2354,-0.2384,-0.2387,-0.2404,-0.2421,-0.243,-0.245,-0.246,-0.248,-0.2488,-0.2488,-0.2509,-0.2498,-0.2511,-0.2525,-0.2525,-0.2518,-0.2474,-0.2461,-0.2436,-0.2491,-0.249,-0.249,0,-0.2287,-0.23,-0.2301,-0.2327,-0.2331,-0.2333,-0.2349,-0.2357,-0.2377,-0.239,-0.2402,-0.2424,-0.2429,-0.2448,-0.2456,-0.2464,-0.2471,-0.2482,-0.2482,-0.2485,-0.2506,-0.2476,-0.2429,-0.2425,-0.2486,-0.2486,-0.2486,0,-0.2248,-0.2266,-0.2269,-0.2277,-0.2307,-0.2308,-0.232,-0.2341,-0.2349,-0.2364,-0.2369,-0.2384,-0.2393,-0.2404,-0.2429,-0.2441,-0.2434,-0.2456,-0.2445,-0.2445,-0.2443,-0.2443,-0.2396,-0.2447,-0.2447,-0.2447,-0.2447,0,-0.2217,-0.2216,-0.2251,-0.2253,-0.2252,-0.228,-0.2279,-0.2295,-0.2313,-0.2318,-0.2345,-0.2349,-0.2382,-0.2391,-0.241,-0.2414,-0.2417,-0.2428,-0.2433,-0.2426,-0.2425,-0.2431,-0.2434,-0.2446,-0.2446,-0.2446,-0.2446,0,-0.2174,-0.2197,-0.2202,-0.2229,-0.2236,-0.2235,-0.2259,-0.2261,-0.2279,-0.2285,-0.2289,-0.2317,-0.2328,-0.2354,-0.2373,-0.2386,-0.2384,-0.2394,-0.2377,-0.2381,-0.2368,-0.2369,-0.2325,-0.232,-0.2373,-0.2372,-0.2372,0,-0.2154,-0.2153,-0.218,-0.2185,-0.2196,-0.2204,-0.2212,-0.2238,-0.2246,-0.2267,-0.2267,-0.228,-0.2292,-0.2308,-0.2331,-0.2344,-0.2355,-0.2338,-0.2357,-0.2349,-0.2355,-0.2355,-0.2355,-0.2334,-0.2334,-0.2333,-0.2333,0,-0.2114,-0.2125,-0.2135,-0.2148,-0.2156,-0.2168,-0.2182,-0.2185,-0.2215,-0.2221,-0.2232,-0.2241,-0.2259,-0.2271,-0.2288,-0.2302,-0.2322,-0.2326,-0.2324,-0.2317,-0.2307,-0.2312,-0.2366,-0.2327,-0.2328,-0.2328,-0.2328,-0.2329,-0.2083,-0.2083,-0.2102,-0.2111,-0.2124,-0.2135,-0.2139,-0.2156,-0.2166,-0.2181,-0.2197,-0.2206,-0.2225,-0.2249,-0.2261,-0.2269,-0.2279,-0.2277,-0.2277,-0.2276,-0.2272,-0.2305,-0.2272,-0.2272,-0.2273,-0.2273,-0.2273,0,-0.2045,-0.2058,-0.2066,-0.2083,-0.2091,-0.2107,-0.2123,-0.2128,-0.2135,-0.2151,-0.2161,-0.2173,-0.2184,-0.2207,-0.2221,-0.2223,-0.2232,-0.2225,-0.2226,-0.2229,-0.2262,-0.2262,-0.2217,-0.2217,-0.2217,-0.2217,-0.2217,-0.2217,-0.2027,-0.2029,-0.2041,-0.205,-0.2063,-0.2071,-0.2078,-0.2089,-0.2101,-0.2113,-0.2122,-0.2136,-0.2154,-0.2169,-0.218,-0.2187,-0.2191,-0.2181,-0.219,-0.2221,-0.2226,-0.2231,-0.2232,-0.2181,-0.2181,-0.2156,-0.2156,-0.2156]}]]